Simultaneous Nadir Overpasses (SNOs) Predictions

Prediction of SNOs between AURA and NPP Satellite Orbit:

Table of predicted SNOs for the next 14.0 days since TLE Epoch: 10/7/2023
Index Date (AURA) Time (AURA) Lat,Lon (AURA) SZA (AURA ) Date (NPP) Time (NPP) Lat,Lon (NPP) SZA (NPP ) Distance(km) Time Diff (sec)
1 10/09/2023 02:45:56 -79.88,-141.03 82.84 10/09/2023 02:44:48 -79.88,-141.09 82.78 1.20 68
2 10/09/2023 03:35:16 80.05, 27.94 96.93 10/09/2023 03:35:27 80.04, 27.80 96.95 2.75 11
3 10/11/2023 18:11:02 80.05, 169.05 97.87 10/11/2023 18:10:47 80.06, 169.16 97.86 2.20 15
4 10/11/2023 19:00:23 -80.21, -21.93 82.37 10/11/2023 19:01:27 -80.21, -21.87 82.42 1.31 64
5 10/14/2023 08:46:48 79.98, -50.45 98.90 10/14/2023 08:46:10 79.98, -50.46 98.93 0.24 38
6 10/14/2023 09:36:09 -80.14, 118.56 81.33 10/14/2023 09:36:50 -80.14, 118.50 81.35 1.23 41
7 10/16/2023 23:22:30 79.98, 90.59 99.83 10/16/2023 23:21:30 79.99, 90.74 99.85 3.13 60
8 10/17/2023 00:11:51 -80.14,-100.39 80.41 10/17/2023 00:12:10 -80.14,-100.29 80.44 1.88 19



Historial Predications of SNOs between AURA and NPP
